Regional Weather Roundup
Issued by NWS

Home | Current Version | Previous Version | Graphics & Text | Print | Product List | Glossary On
Versions: 1 2 3 4 5 6 7 8 9 10 11 12 13 14 15 16 17 18 19 20 21 22 23 24 25 26 27 28 29 30 31 32 33 34 35 36 37 38 39 40 41 42 43 44 45 46 47 48 49 50
384
ASUS43 KMKX 231011
RWRWI

WISCONSIN REGIONAL WEATHER ROUNDUP
NATIONAL WEATHER SERVICE MILWAUKEE/SULLIVAN WI
500 AM CDT FRI JUN 23 2017

NOTE: "FAIR" INDICATES FEW OR NO CLOUDS BELOW 12,000 FEET WITH NO
SIGNIFICANT WEATHER AND/OR OBSTRUCTIONS TO VISIBILITY.

WIZ001-002-006>008-014>016-023>028-231100-
NORTHWEST WISCONSIN

CITY           SKY/WX    TMP DP  RH WIND       PRES   REMARKS
SUPERIOR ARPT  NOT AVBL
ASHLAND        CLEAR     52  50  93 SW8       29.64R
HAYWARD        PTCLDY    47  45  93 CALM      29.68S FOG
SIREN          CLEAR     56  50  80 W7        29.69R
CUMBERLAND     CLEAR     52  50  93 CALM      29.70S
RICE LAKE      CLEAR     54  53  95 CALM      29.71S FOG
CHETEK         FOG       53  53 100 CALM      29.70S VSB 1
LADYSMITH      CLEAR     51  50  97 CALM      29.71S
EAU CLAIRE     CLEAR     58  57  97 CALM      29.69S
MENOMONIE      CLEAR     57  56  95 W3        29.71S
NEW RICHMOND   CLEAR     54  53  98 SW3       29.71S
OSCEOLA        CLEAR     52  52 100 CALM      29.73F
$$

WIZ003>005-009-010-017-018-231100-
NORTH CENTRAL WISCONSIN

CITY           SKY/WX    TMP DP  RH WIND       PRES   REMARKS
MANITOWISH WTR FOG       48  48 100 CALM      29.67S VSB 1/2
ARBOR VITAE    FOG       54  53  97 CALM      29.68S VSB 1
WOODRUFF       FOG       54  53  97 CALM      29.68S VSB 1
RHINELANDER    FOG       49  49 100 W7        29.69S VSB 1/4
EAGLE RIVER    FOG       47  47 100 CALM      29.68R VSB<1/4
LAND O LAKES   FOG       48  48 100 CALM      29.69S VSB 1/4
PHILLIPS       CLEAR     54  53  99 CALM      29.68S
TOMAHAWK       NOT AVBL
MEDFORD        CLEAR     56  56  99 W5        29.70F
MERRILL        CLEAR     56  56 100 NW3       29.69F
$$

WIZ029-030-035-036-043>047-231100-
CENTRAL WISCONSIN

CITY           SKY/WX    TMP DP  RH WIND       PRES   REMARKS
WAUSAU         CLEAR     57  57 100 CALM      29.68S FOG
MOSINEE        FOG       57  57 100 W3        29.71R VSB 1/4
MARSHFIELD     FOG       57  55  93 W5        29.69S VSB 3/4
STEVENS POINT  FOG       59  59 100 CALM      29.70R VSB 3/4
WAUPACA        CLOUDY    64  64  98 CALM      29.69R FOG
WAUTOMA        FOG       63  63 100 NW5       29.70R VSB 1/2
WISC RAPIDS    FOG       62  61  96 CALM      29.71R VSB 3/4
CAMP DOUGLAS   FOG       58  58 100 CALM      29.71S VSB<1/4
$$

WIZ011>013-019>022-031-037>040-048>050-231100-
NORTHEAST WISCONSIN

CITY           SKY/WX    TMP DP  RH WIND       PRES   REMARKS
ANTIGO         CLEAR     54  54 100 W5        29.69F
SHAWANO        PTCLDY    63  61  93 W3        29.67S
OCONTO         CLOUDY    62  61  96 W3        29.64F
STURGEON BAY     N/A     64  63  96 W6          N/A
GREEN BAY      CLOUDY    64  64 100 W3        29.65F
MANITOWOC      CLOUDY    66  64  93 NW9       29.66R
APPLETON       CLOUDY    63  63 100 W7        29.67R
CLINTONVILLE   PTCLDY    61  61 100 W3        29.68R
OSHKOSH        CLOUDY    64  63  96 W5        29.68S
$$

WIZ032>034-041-042-053>061-231100-
SOUTHWEST WISCONSIN

CITY           SKY/WX    TMP DP  RH WIND       PRES   REMARKS
LA CROSSE      PTCLDY    62  61  96 CALM      29.72R FOG
SPARTA         FOG       55  55 100 CALM      29.73R VSB 1/2
VIROQUA        CLOUDY    62  62 100 CALM      29.74R VSB 1/4
BOSCOBEL       PTCLDY    60  59  96 CALM      29.73R
PRAIRIE DU CHI MOCLDY    63  62  95 CALM      29.73R
PLATTEVILLE    CLOUDY    65  62  90 CALM      29.74S
$$

WIZ056-057-062-063-064-067-068-231100-
SOUTH CENTRAL WISCONSIN

CITY           SKY/WX    TMP DP  RH WIND       PRES   REMARKS
REEDSBURG      CLOUDY    62  62 100 W3        29.72R FOG
BARABOO/DELLS  CLOUDY    62  60  94 CALM      29.72R
LONE ROCK      PTCLDY    61  60  97 W3        29.73R
MINERAL POINT  CLOUDY    64  64 100 CALM      29.74R
MADISON        CLOUDY    64  61  90 W3        29.71R
MIDDLETON      CLOUDY    65  64  98 CALM      29.73R
WATERTOWN      LGT RAIN  64  64 100 N6        29.70R
MONROE         CLOUDY    64  63  94 N8        29.72S
JANESVILLE     CLOUDY    64  64 100 N6        29.70S
$$

WIZ051-052-058>065-066-070>072-231100-
SOUTHEAST WISCONSIN

CITY           SKY/WX    TMP DP  RH WIND       PRES   REMARKS
MILWAUKEE      TSTM      66  65  96 CALM      29.68R FOG
WAUKESHA       CLOUDY    63  61  94 CALM      29.65F
MILWAUKEE/TIMM HVY RAIN  63  61  94 NW3       29.69R
RACINE         TSTM      65  63  93 N8        29.68S FOG
KENOSHA        RAIN      66  64  93 N8        29.65F FOG
FOND DU LAC    MOCLDY    66  62  87 W5        29.69R
SHEBOYGAN      LGT RAIN  66  66 100 NW5       29.66S
WEST BEND      LGT RAIN  63  63 100 W7        29.69R
JUNEAU         CLOUDY    64  61  90 NW3       29.71R
$$

LSZ147-162-231100-
LAKE SUPERIOR

STATION/POSITION TIME  TEMP    WIND        PRES    WAVE
                       AIR SEA DIR/SP/G            HT/PER
                 (UTC) (F)     (DEG/KT/KT) (MB)    (FT/S)
W MID LAKE BUOY  0950   45 39  230/ 10/ 12 1002.3R   1/ 3
DEVILS ISLAND    1000   56     240/ 13/ 14 1002.8R
SAXON HARBOR     0930   58     190/  7/ 11 1003.0S
$$

LMZ867-665-643>646-231100-
LAKE MICHIGAN

STATION/POSITION TIME  TEMP    WIND        PRES    WAVE
                       AIR SEA DIR/SP/G            HT/PER
                 (UTC) (F)     (DEG/KT/KT) (MB)    (FT/S)
CHAMBERS ISLAND  0940   63     220/  3/  5 1003.4S
S GREEN BAY BUOY 1000   66     300/  6/  8 1003.8
N MID LAKE BUOY  0950   59 55  280/  8/ 10 1003.3F   1/ 5
NORTHPORT PIER   0940   65     290/  6/ 10 1003.0F
KEWAUNEE LAKESHO 0942   66     310/  5/  9 1003.6R
SHEBOYGAN LAKESH 1000   66     280/  5/  6 1003.9R
PORT WASHINGTON  0930   65     290/  3/  4 1005.8R
ATWATER BUOY     0909   61 59  260/  4/  6 1005.2R
MILWAUKEE LAKESH 0950   64     360/  6/  8   N/A
S MID LAKE BUOY  0950   63 61   20/ 10/ 12 1003.8R   2/ 4
KENOSHA   LAKESH 1000   64      40/ 10/ 11 1003.7
$$

TC  - TEMPERATURE IN CELSIUS
VSB - VISIBILITY IN STATUTE MILES
WCI - WIND CHILL INDEX
HX  - HEAT INDEX





USA.gov is the U.S. government's official web portal to all federal, state and local government web resources and services.